Back to catalog

CZ-4C DEB

AliveSSO
NORAD 42671·DEBRIS·🇨🇳 China

Launched Nov 26, 2015 from Taiyuan Satellite Launch Center

Loading…

Next Passes (next 24 hours)

TLE

FreshSource: Space-Track

Epoch: Sep 14, 2026, 09:51 UTC

1 42671U 15069D   26257.41097879  .00003287  00000-0  41581-3 0  9990
2 42671  97.7751 115.5501 0112236  82.2685 279.1253 14.78103025569675

Track CZ-4C DEB in real time with AllMySat

Download on the App Store